Wind_Speed
92 94 93 83 76 66 54 45 39 37 34 37 45 50 59 65 72 78 86 101 107 114 115 113 116 114 113 110 107 103 99 92 89 88 89 94 92 86 82 80 78 74 71 70 66
93 97 96 86 77 68 61 55 48 42 42 39 43 52 57 63 71 75 91 97 103 111 116 117 111 113 113 113 108 105 96 93 96 95 93 97 91 86 82 79 78 74 71 70 68
95 98 96 86 79 71 67 64 57 52 48 47 45 51 58 62 67 77 83 93 100 106 113 121 120 112 112 113 109 104 98 96 98 101 99 99 93 86 81 79 78 73 71 70 69
97 100 94 85 79 74 69 66 65 61 57 52 49 52 57 63 66 77 80 90 97 103 110 120 119 115 111 109 106 106 100 99 101 102 101 100 96 90 86 84 82 78 75 75 73
100 102 93 85 79 75 72 70 66 64 64 57 53 54 58 62 65 74 82 87 93 100 106 115 121 113 114 109 107 104 104 102 102 105 103 101 98 93 88 87 83 82 79 78 77
103 102 93 86 81 76 75 72 70 65 63 61 54 53 53 57 68 76 81 84 88 98 104 108 120 117 114 115 110 106 101 101 103 103 102 102 100 97 90 88 87 84 84 82 79
107 100 92 86 82 79 76 70 63 60 57 58 52 48 48 56 70 72 77 83 84 94 99 107 118 122 109 109 110 103 104 100 99 101 100 100 98 92 96 93 88 85 85 84 83
108 99 92 87 82 82 79 67 59 53 52 50 45 38 47 61 73 73 76 82 82 90 97 103 111 124 119 110 104 105 103 101 101 97 97 98 93 91 95 92 91 88 87 84 81
106 98 91 86 84 82 75 62 53 47 46 43 35 28 50 65 68 73 77 80 81 88 93 99 109 112 123 113 103 97 94 98 101 100 98 95 91 91 92 92 90 87 86 85 84
104 97 91 85 82 76 66 57 51 42 38 36 29 31 49 65 74 72 77 78 80 86 92 96 103 110 111 117 108 96 87 92 98 100 98 94 87 90 88 88 87 85 86 88 88
102 96 91 85 82 72 60 56 48 38 29 27 29 41 56 69 74 73 74 75 77 84 88 91 98 104 103 101 102 102 99 91 94 96 93 92 89 92 92 87 88 86 85 83 85
101 96 91 88 82 68 59 54 43 32 24 22 32 46 57 63 70 71 72 71 71 79 82 88 91 96 101 102 99 98 97 96 92 91 89 89 87 86 89 88 86 86 86 85 84
99 95 90 87 78 64 60 49 39 27 18 21 29 46 52 59 68 68 64 65 70 77 78 84 89 90 93 98 99 97 95 96 96 92 85 81 83 87 87 86 86 87 86 83 82
95 92 87 82 71 62 55 43 31 21 13 18 31 43 48 55 63 62 62 65 70 74 77 82 88 91 93 96 103 101 96 96 96 94 88 82 74 79 81 84 83 82 81 82 82
92 86 82 76 66 60 48 38 26 16 6 15 25 34 42 49 55 58 61 63 68 72 72 78 85 89 86 86 93 100 94 94 95 93 90 87 79 81 78 80 78 75 75 77 77
90 83 79 73 65 52 42 34 26 18 7 5 15 28 38 47 53 54 53 56 63 66 65 76 77 88 84 81 82 85 86 89 90 91 92 89 84 85 82 78 76 77 77 75 74
88 83 79 72 62 47 38 37 26 17 9 2 11 24 31 41 46 45 46 50 56 57 53 64 66 80 85 82 76 71 76 77 77 79 83 91 93 88 87 84 81 78 78 77 78
89 84 77 70 61 46 41 37 28 16 13 6 11 20 33 38 40 39 41 48 55 54 52 57 61 74 82 79 73 69 67 68 69 68 71 79 83 94 92 88 86 83 83 81 81
87 82 79 72 61 48 42 39 28 15 13 10 18 26 33 36 35 37 43 47 51 50 47 49 57 64 75 78 74 67 65 65 66 67 64 61 67 78 86 92 91 87 84 83 83
84 79 77 72 61 48 43 38 24 15 18 22 27 32 33 34 35 36 37 39 37 40 38 40 47 52 56 69 73 71 70 65 66 65 63 65 66 68 72 79 84 90 89 88 87
79 75 74 69 61 47 41 35 24 13 16 25 33 34 35 36 35 37 36 35 36 37 36 36 45 53 53 54 57 62 68 68 63 64 69 68 65 63 63 64 69 77 83 87 90
75 70 71 66 57 46 37 29 23 17 12 19 21 28 29 31 33 30 31 31 30 32 32 33 38 48 54 54 55 55 56 61 63 67 69 68 67 63 58 59 60 65 71 74 78
71 67 65 62 55 44 36 30 19 17 14 16 19 20 22 21 23 27 24 26 26 26 26 28 33 40 49 57 58 56 56 59 60 61 63 61 61 60 58 57 57 60 62 65 67
67 63 62 58 51 41 31 24 14 12 16 18 18 20 20 21 23 23 25 25 24 25 24 24 30 37 45 50 55 58 62 63 65 63 60 60 62 58 54 56 55 55 58 61 63
62 58 56 53 44 35 29 20 10 6 9 14 15 18 19 19 19 21 20 19 20 21 22 23 26 31 37 42 46 50 56 62 60 56 59 62 59 56 57 55 52 54 55 53 51
58 55 52 48 43 34 27 19 8 2 8 13 15 14 16 18 18 17 15 15 16 18 22 24 25 26 29 35 40 42 42 42 43 46 44 47 46 49 47 45 45 42 36 36 38
56 52 49 45 38 30 25 18 12 4 6 9 11 13 13 15 16 17 19 19 18 20 21 21 22 24 26 28 31 34 36 36 38 38 37 33 32 37 33 32 32 31 29 31 33
Wind_Direction
339 339 337 336 333 330 324 315 305 295 280 264 257 246 241 231 225 221 219 217 218 219 219 221 221 221 223 225 226 227 227 226 228 232 235 236 236 235 238 242 245 245 244 244 243
339 338 336 334 331 328 322 316 310 299 286 269 255 248 239 234 227 222 219 219 218 219 217 220 222 221 222 224 224 227 226 228 229 232 234 237 236 236 238 241 243 244 244 244 244
338 337 335 332 330 327 322 317 311 301 288 276 258 246 241 233 228 224 221 218 218 219 218 217 222 222 223 223 224 225 225 227 231 233 235 237 238 236 235 237 241 242 243 244 245
337 336 335 332 329 324 320 315 310 302 291 278 262 247 238 234 228 226 223 219 218 219 220 218 220 223 224 225 225 226 225 227 229 232 235 237 238 238 238 239 243 244 245 247 248
337 335 334 331 328 323 319 315 307 299 289 278 263 249 236 233 227 227 223 222 218 218 220 219 218 221 225 225 225 225 225 226 229 230 233 236 238 239 239 240 241 244 245 247 249
337 336 334 331 327 323 319 315 306 294 284 277 265 251 237 230 227 225 223 222 221 217 218 220 216 219 223 225 226 227 226 225 228 231 234 234 236 237 239 241 241 244 246 247 250
337 336 334 331 327 323 319 315 303 292 282 272 264 247 233 226 227 222 223 220 219 218 216 219 219 216 219 225 226 227 229 227 229 231 233 234 235 236 239 239 242 244 247 250 251
337 336 334 331 328 326 321 316 305 295 284 275 266 247 224 221 223 219 219 218 216 218 216 218 220 218 218 220 225 227 229 232 232 232 233 234 235 235 238 240 242 242 246 250 251
337 336 334 332 330 327 321 317 310 298 285 273 263 241 221 217 220 218 216 215 212 214 215 217 220 220 219 218 220 225 228 231 234 236 235 236 237 237 239 241 241 243 245 248 250
338 336 335 334 332 329 324 320 313 300 285 270 253 223 215 212 215 216 213 212 210 213 213 214 217 219 220 219 221 222 223 227 230 235 238 238 236 240 240 242 242 242 243 245 248
338 337 337 336 334 332 329 323 316 304 287 262 232 215 210 210 211 213 211 210 208 213 212 212 216 218 219 220 220 222 221 223 230 235 236 240 238 242 243 244 247 244 243 246 249
338 340 339 338 337 336 334 328 317 306 285 251 219 208 213 211 209 210 208 206 206 214 212 212 214 218 218 220 220 221 223 225 225 228 233 235 236 238 241 242 243 247 249 247 246
340 342 340 340 338 339 337 330 320 306 280 242 218 211 212 207 206 206 204 203 204 211 212 211 213 219 216 219 219 222 223 224 226 225 225 231 234 237 240 243 245 246 247 247 248
342 343 342 341 341 343 336 331 326 308 274 231 211 214 210 204 203 199 199 200 204 209 211 210 213 219 215 216 218 219 221 224 225 226 226 226 229 235 239 243 245 246 247 247 247
343 344 343 345 348 343 338 340 343 328 295 227 209 213 208 200 196 197 197 198 203 209 208 212 212 218 220 217 222 223 223 225 226 227 227 227 225 233 235 240 243 245 246 247 248
342 347 347 352 351 347 350 355 1 4 347 238 206 206 197 192 190 193 196 198 205 211 206 210 213 214 219 218 219 222 223 227 228 229 229 229 228 234 234 236 239 242 245 246 248
344 349 352 355 355 352 2 6 8 22 18 101 182 191 188 188 185 187 192 199 206 215 208 213 216 212 218 221 220 222 224 226 230 229 230 232 231 233 237 236 236 239 243 247 249
346 350 354 357 358 360 16 14 17 38 53 88 161 174 174 175 176 182 191 195 204 212 207 208 215 213 217 223 223 221 222 224 226 231 233 234 234 234 237 238 238 239 243 246 250
346 350 355 358 1 4 18 15 14 51 74 113 147 154 164 166 171 181 187 196 202 210 210 211 210 214 217 220 224 223 224 225 226 229 232 234 236 237 238 239 240 240 242 245 248
347 352 356 359 2 6 18 14 9 65 95 118 136 150 156 163 172 176 189 195 202 210 210 208 212 213 216 221 224 225 226 229 229 231 233 234 237 240 242 243 243 243 245 245 247
348 353 355 360 3 7 19 15 18 50 118 144 151 153 160 162 172 177 181 189 193 204 210 209 210 212 213 215 216 223 226 225 225 228 232 235 238 243 246 247 247 247 249 250 251
348 354 355 358 2 9 13 17 29 45 95 137 150 154 161 165 168 178 179 186 192 198 204 206 206 210 214 217 221 224 223 225 228 230 235 239 242 244 245 247 247 247 249 251 254
348 354 355 356 1 8 11 16 41 68 84 113 137 145 149 153 164 166 179 184 191 196 202 205 205 207 211 216 219 219 223 220 222 230 234 237 242 243 244 248 250 253 255 257 258
347 353 354 355 1 6 7 6 23 97 118 130 139 142 151 156 165 172 177 182 189 193 194 192 196 202 207 213 218 222 224 228 230 235 241 244 244 245 249 252 254 256 260 263 265
347 351 353 354 358 1 5 4 3 30 124 135 143 148 150 155 165 173 181 188 193 195 197 198 195 199 204 209 213 218 225 231 235 239 240 242 246 247 252 256 257 261 263 264 266
346 348 352 352 354 357 358 358 356 49 138 149 151 154 158 165 173 177 179 191 200 199 201 201 202 202 203 207 211 214 218 222 225 231 237 242 247 248 253 256 261 258 259 260 262
343 346 349 350 352 350 346 337 335 275 206 187 182 173 180 181 178 171 165 170 174 175 179 184 189 194 198 204 209 213 218 224 229 233 236 241 241 245 244 244 249 256 263 264 264
Height
10590 10576 10565 10555 10543 10534 10530 10527 10522 10518 10516 10515 10513 10513 10516 10519 10525 10533 10546 10541 10555 10569 10587 10600 10611 10626 10641 10656 10670 10686 10704 10726 10730 10726 10726 10730 10749 10766 10777 10778 10782 10792 10800 10802 10808
10575 10562 10547 10536 10526 10518 10511 10507 10504 10501 10498 10498 10497 10497 10498 10503 10509 10518 10506 10525 10538 10551 10568 10583 10595 10608 10625 10638 10654 10672 10697 10710 10710 10709 10716 10717 10738 10755 10766 10769 10770 10781 10787 10791 10797
10561 10548 10534 10520 10509 10500 10492 10484 10481 10479 10477 10476 10478 10478 10480 10484 10493 10488 10501 10509 10519 10535 10548 10559 10571 10591 10609 10622 10643 10662 10683 10692 10696 10695 10702 10709 10726 10744 10755 10758 10759 10770 10776 10780 10786
10547 10533 10518 10504 10492 10482 10473 10465 10456 10450 10450 10450 10453 10455 10460 10464 10472 10473 10485 10490 10501 10516 10529 10544 10560 10579 10597 10613 10629 10646 10664 10675 10677 10681 10689 10699 10715 10732 10744 10746 10750 10758 10764 10768 10773
10532 10517 10501 10486 10475 10462 10452 10441 10434 10425 10416 10419 10424 10430 10437 10447 10451 10455 10464 10472 10485 10499 10513 10529 10546 10564 10578 10595 10608 10625 10642 10654 10659 10665 10675 10687 10704 10718 10731 10734 10742 10745 10752 10755 10759
10517 10500 10482 10468 10454 10441 10429 10418 10405 10396 10390 10388 10394 10404 10416 10428 10429 10431 10445 10457 10471 10481 10495 10514 10534 10547 10558 10572 10590 10608 10622 10636 10643 10651 10663 10675 10691 10706 10715 10721 10731 10735 10738 10744 10750
10499 10481 10464 10449 10432 10417 10404 10393 10379 10368 10363 10359 10365 10377 10394 10403 10403 10417 10427 10439 10453 10465 10480 10497 10511 10528 10546 10558 10576 10597 10607 10621 10632 10641 10654 10664 10680 10700 10693 10708 10720 10727 10726 10732 10740
10482 10464 10446 10428 10410 10393 10376 10366 10353 10344 10339 10337 10343 10358 10371 10371 10374 10393 10405 10421 10437 10449 10465 10479 10493 10511 10529 10547 10561 10581 10594 10608 10618 10627 10639 10649 10670 10682 10684 10695 10704 10713 10718 10722 10727
10468 10448 10429 10411 10391 10372 10354 10341 10331 10323 10317 10317 10324 10339 10343 10347 10360 10372 10386 10401 10419 10433 10448 10463 10477 10497 10512 10534 10551 10569 10589 10599 10603 10612 10624 10641 10659 10667 10673 10680 10690 10701 10708 10709 10712
10453 10433 10413 10395 10375 10355 10336 10323 10312 10304 10299 10298 10307 10319 10321 10330 10333 10354 10368 10387 10406 10418 10431 10448 10464 10480 10499 10523 10549 10567 10580 10584 10591 10599 10612 10629 10649 10650 10660 10665 10672 10684 10691 10694 10696
10439 10419 10398 10377 10357 10338 10322 10307 10297 10288 10284 10283 10289 10295 10296 10305 10318 10338 10357 10376 10396 10405 10423 10442 10451 10473 10500 10513 10528 10543 10560 10572 10578 10591 10606 10619 10636 10635 10641 10653 10659 10667 10674 10684 10686
10425 10404 10382 10359 10340 10323 10308 10294 10283 10276 10272 10271 10273 10278 10282 10299 10314 10329 10348 10370 10391 10398 10416 10432 10449 10461 10482 10498 10514 10528 10544 10556 10568 10581 10595 10606 10621 10621 10623 10637 10644 10651 10660 10667 10674
10414 10393 10371 10349 10329 10312 10296 10284 10272 10265 10261 10262 10267 10271 10278 10293 10307 10325 10348 10367 10381 10389 10408 10425 10434 10447 10468 10484 10499 10511 10527 10538 10555 10570 10584 10595 10607 10611 10610 10621 10630 10634 10643 10656 10664
10407 10386 10364 10344 10321 10305 10291 10277 10266 10259 10256 10258 10260 10265 10277 10291 10306 10325 10340 10357 10371 10382 10396 10414 10428 10434 10451 10467 10479 10494 10510 10525 10539 10557 10574 10585 10598 10592 10600 10608 10614 10625 10634 10640 10645
10402 10384 10362 10340 10318 10301 10288 10274 10264 10257 10255 10255 10259 10269 10278 10292 10309 10323 10335 10352 10365 10375 10393 10408 10423 10430 10443 10463 10474 10487 10508 10518 10531 10547 10561 10571 10584 10573 10587 10598 10603 10613 10617 10624 10629
10394 10380 10358 10336 10316 10300 10287 10273 10265 10260 10257 10259 10265 10272 10282 10293 10309 10322 10339 10353 10364 10372 10389 10401 10414 10425 10436 10454 10467 10485 10500 10510 10523 10537 10551 10557 10571 10561 10577 10586 10591 10597 10603 10610 10615
10389 10373 10352 10332 10317 10302 10287 10276 10270 10264 10263 10265 10272 10277 10288 10301 10315 10328 10341 10355 10365 10373 10393 10403 10412 10424 10432 10445 10464 10478 10491 10503 10514 10527 10538 10541 10553 10555 10562 10572 10579 10584 10590 10596 10602
10381 10368 10353 10334 10318 10304 10291 10282 10275 10270 10270 10273 10278 10283 10293 10307 10318 10330 10343 10353 10360 10369 10383 10397 10409 10421 10433 10442 10455 10470 10483 10496 10507 10517 10524 10527 10536 10544 10547 10555 10564 10573 10580 10587 10590
10380 10367 10350 10335 10320 10307 10296 10288 10282 10276 10278 10281 10284 10291 10302 10311 10322 10331 10338 10348 10356 10368 10381 10393 10403 10414 10425 10435 10449 10464 10477 10487 10496 10505 10512 10517 10524 10528 10533 10542 10551 10562 10569 10573 10574
10380 10366 10351 10337 10325 10313 10302 10295 10290 10285 10286 10290 10295 10301 10310 10318 10326 10333 10343 10351 10363 10371 10382 10392 10401 10410 10421 10432 10443 10456 10466 10477 10486 10494 10501 10506 10512 10516 10523 10534 10543 10548 10552 10555 10559
10385 10369 10355 10342 10330 10320 10310 10305 10299 10296 10293 10293 10297 10307 10313 10321 10329 10336 10344 10354 10363 10370 10378 10387 10394 10404 10416 10426 10436 10445 10455 10467 10477 10485 10490 10495 10501 10507 10516 10524 10528 10533 10536 10541 10546
10387 10375 10359 10348 10338 10327 10320 10315 10310 10308 10305 10308 10311 10312 10320 10326 10332 10342 10347 10354 10361 10368 10375 10383 10391 10401 10411 10422 10432 10440 10449 10460 10469 10473 10478 10484 10491 10500 10508 10512 10515 10519 10523 10527 10530
10388 10377 10365 10353 10343 10335 10328 10325 10320 10319 10319 10320 10323 10327 10331 10336 10340 10344 10350 10356 10361 10368 10374 10381 10389 10398 10406 10415 10423 10432 10442 10450 10458 10465 10468 10475 10483 10490 10497 10502 10505 10509 10512 10516 10516
10390 10379 10368 10357 10348 10341 10336 10333 10329 10327 10327 10329 10330 10332 10336 10339 10343 10348 10352 10357 10363 10368 10374 10380 10385 10391 10399 10408 10417 10427 10435 10443 10449 10453 10460 10466 10474 10481 10488 10490 10495 10500 10500 10499 10500
10391 10382 10373 10362 10355 10348 10344 10340 10338 10335 10334 10335 10336 10338 10341 10344 10348 10351 10357 10361 10365 10369 10373 10378 10384 10390 10397 10404 10413 10420 10427 10435 10440 10447 10448 10459 10465 10475 10477 10481 10485 10487 10487 10488 10487
10394 10383 10374 10366 10357 10352 10349 10346 10345 10343 10342 10341 10342 10344 10345 10348 10351 10355 10358 10362 10366 10370 10373 10377 10382 10388 10393 10400 10407 10414 10421 10427 10434 10438 10445 10450 10459 10464 10469 10470 10473 10474 10476 10476 10475
10390 10382 10375 10369 10362 10355 10352 10350 10349 10347 10346 10345 10346 10346 10349 10350 10352 10355 10358 10362 10365 10369 10372 10377 10381 10385 10391 10397 10403 10409 10415 10422 10428 10433 10439 10446 10452 10454 10460 10462 10464 10466 10467 10466 10466